This is the latest recevied weather packets stored in our database for station/object 9W8AKN-13. If no packets are shown the sender has not sent any weather packets the latest 10 day(s).
| Time | Temp. | Humidity | Pressure | Rain* | Wind** | Luminosity | Snow |
|---|---|---|---|---|---|---|---|
| 1788088938 | 30.56° C | 64% | 1009.8 hPa | - | - | - | - |
| 1788088038 | 30.56° C | 65% | 1009.6 hPa | - | - | - | - |
| 1788087138 | 30.56° C | 67% | 1009.3 hPa | - | - | - | - |
| 1788086237 | 30.56° C | 72% | 1009 hPa | - | - | - | - |
| 1788085337 | 30.56° C | 70% | 1009 hPa | - | - | - | - |
| 1788084437 | 30.56° C | 73% | 1008.9 hPa | - | - | - | - |
| 1788083537 | 31.11° C | 75% | 1008.9 hPa | - | - | - | - |
| 1788082637 | 31.11° C | 76% | 1008.8 hPa | - | - | - | - |
| 1788081737 | 31.11° C | 75% | 1008.6 hPa | - | - | - | - |
| 1788079938 | 31.11° C | 75% | 1008.5 hPa | - | - | - | - |
| 1788079038 | 31.11° C | 74% | 1008.5 hPa | - | - | - | - |
| 1788078138 | 31.11° C | 74% | 1008.4 hPa | - | - | - | - |
| 1788077238 | 31.11° C | 75% | 1008.5 hPa | - | - | - | - |
| 1788076338 | 31.11° C | 75% | 1008.6 hPa | - | - | - | - |
| 1788075438 | 31.11° C | 75% | 1008.7 hPa | - | - | - | - |
| 1788074538 | 31.11° C | 75% | 1008.7 hPa | - | - | - | - |
| 1788073638 | 31.11° C | 75% | 1008.9 hPa | - | - | - | - |
| 1788072738 | 31.11° C | 76% | 1008.9 hPa | - | - | - | - |
| 1788071837 | 31.11° C | 76% | 1009.2 hPa | - | - | - | - |
| 1788070937 | 31.11° C | 77% | 1009.2 hPa | - | - | - | - |
| 1788070037 | 31.11° C | 77% | 1009.5 hPa | - | - | - | - |
| 1788069137 | 30.56° C | 78% | 1010 hPa | - | - | - | - |
| 1788068237 | 30.56° C | 78% | 1010.3 hPa | - | - | - | - |
| 1788067337 | 30.56° C | 79% | 1010.5 hPa | - | - | - | - |
| 1788066437 | 30.56° C | 79% | 1010.7 hPa | - | - | - | - |
* Rain since midnight (hover to see other rain measurements)
** Current wind speed in m/s (hover to see current wind gust speed)